EW1948 Weather Reports


Display with metric or nautical units.
time (UTC)temp
F
wind
direction
speed
MPH
gust
MPH
rain 1hr
in
rain 24hr
in
rain mn
in
humidity
%
barometer
mb
20260502170516 58 0 3.0 6.0 0.00 0.00 0.00 47 1020.5
20260502163518 59 338 3.0 8.0 0.00 0.00 0.00 52 1020.3
20260502162517 58 270 2.0 5.0 0.00 0.00 0.00 52 1020.2
20260502161516 57 0 3.0 6.0 0.00 0.00 0.00 51 1020.4
20260502160516 57 0 3.0 6.0 0.00 0.00 0.00 51 1020.3
20260502151517 58 23 2.0 5.0 0.00 0.00 0.00 59 1020.2
20260502150515 58 0 3.0 6.0 0.00 0.00 0.00 59 1020.1
20260502130517 51 338 3.0 5.0 0.00 0.00 0.00 79 1019.4
20260502123517 48 338 1.0 2.0 0.00 0.00 0.00 86 1019.0
20260502122517 47 338 1.0 3.0 0.00 0.00 0.00 88 1019.0
20260502121517 46 23 1.0 3.0 0.00 0.00 0.00 88 1018.9
20260502120519 45 23 1.0 3.0 0.00 0.00 0.00 88 1018.8
20260502115517 44 0.0 1.0 0.00 0.00 0.00 88 1018.6
20260502114517 44 0.0 0.0 0.00 0.00 0.00 88 1018.3
20260502113518 44 0.0 0.0 0.00 0.00 0.00 88 1018.1
20260502112517 44 0.0 1.0 0.00 0.00 0.00 88 1018.1
20260502111517 44 0.0 1.0 0.00 0.00 0.00 88 1018.0
20260502110517 44 0.0 0.0 0.00 0.00 0.00 88 1017.9
20260502105517 44 0.0 0.0 0.00 0.00 0.00 87 1017.9
20260502104517 44 0.0 0.0 0.00 0.00 0.00 87 1017.8
20260502103517 44 0.0 1.0 0.00 0.00 0.00 87 1017.7
20260502102517 44 0.0 0.0 0.00 0.00 0.00 86 1017.7
20260502101517 44 0.0 1.0 0.00 0.00 0.00 86 1017.7
20260502100517 44 0.0 0.0 0.00 0.00 0.00 84 1017.6
20260502091517 47 0.0 0.0 0.00 0.00 0.00 79 1017.5
20260502090517 48 0.0 0.0 0.00 0.00 0.00 77 1017.4
20260502071517 48 0.0 2.0 0.00 0.00 0.00 80 1017.5
20260502070517 47 0.0 0.0 0.00 0.00 0.00 82 1017.6
20260502065537 47 0.0 2.0 0.00 0.00 0.00 83 1018.0
20260502064517 47 0.0 0.0 0.00 0.00 0.00 82 1017.6
20260502063557 47 0.0 0.0 0.00 0.00 0.00 82 1017.5
20260502062517 47 0.0 0.0 0.00 0.00 0.00 82 1017.5
20260502060517 47 0.0 0.0 0.00 0.00 0.00 82 1017.5
20260502055537 47 0.0 0.0 0.00 0.00 0.00 81 1017.5
20260502054517 47 0.0 0.0 0.00 0.00 0.00 79 1017.5
20260502053517 47 0.0 0.0 0.00 0.00 0.00 78 1017.5
20260502052517 48 0.0 0.0 0.00 0.00 0.00 78 1017.5
20260502051517 48 0.0 1.0 0.00 0.00 0.00 78 1017.5
20260502050517 48 0.0 0.0 0.00 0.00 0.00 78 1017.5
20260502045517 49 0.0 0.0 0.00 0.00 0.00 78 1017.5
20260502044517 49 0.0 1.0 0.00 0.00 0.00 77 1017.7
20260502043517 50 0.0 0.0 0.00 0.00 0.00 76 1017.6
20260502042537 50 0.0 1.0 0.00 0.00 0.00 75 1017.7
20260502041517 51 0.0 1.0 0.00 0.00 0.00 74 1017.7
20260502040559 51 0.0 1.0 0.00 0.00 0.00 74 1017.7
20260502035517 51 0.0 1.0 0.00 0.00 0.00 74 1017.9
20260502034517 51 0.0 2.0 0.00 0.00 0.00 73 1017.9
20260502033519 51 0.0 0.0 0.00 0.00 0.00 72 1017.9
20260502032517 51 0.0 0.0 0.00 0.00 0.00 71 1018.0
20260502031517 51 0.0 1.0 0.00 0.00 0.00 71 1018.0
20260502030518 51 0.0 0.0 0.00 0.00 0.00 70 1017.9
20260502025537 51 0.0 0.0 0.00 0.00 0.00 69 1018.0
20260502024517 51 0.0 0.0 0.00 0.00 0.00 68 1018.0
20260502023517 51 0.0 0.0 0.00 0.00 0.00 67 1017.8
20260502022517 51 0.0 0.0 0.00 0.00 0.00 64 1017.7
20260502021518 51 0.0 0.0 0.00 0.00 0.00 63 1017.8
20260502020518 51 0.0 0.0 0.00 0.00 0.00 61 1017.6
20260502015517 52 0.0 0.0 0.00 0.00 0.00 60 1017.4
20260502014619 52 0.0 0.0 0.00 0.00 0.00 59 1017.2
20260502013517 53 0.0 0.0 0.00 0.00 0.00 58 1017.0
20260502012538 54 0.0 0.0 0.00 0.00 0.00 55 1017.0
20260502011517 55 0.0 0.0 0.00 0.00 0.00 52 1016.9
20260502010517 57 0.0 0.0 0.00 0.00 0.00 49 1016.7
20260502005517 58 0.0 0.0 0.00 0.00 0.00 48 1016.6
20260502004517 59 0.0 1.0 0.00 0.00 0.00 44 1016.5
20260502003537 59 0.0 2.0 0.00 0.00 0.00 40 1016.4
20260502002517 60 315 1.0 2.0 0.00 0.00 0.00 39 1016.4
20260502001517 60 293 1.0 3.0 0.00 0.00 0.00 38 1016.4
20260502000517 61 315 2.0 4.0 0.00 0.00 0.00 36 1016.3
20260501235517 62 0 2.0 6.0 0.00 0.00 0.00 36 1016.2
20260501234517 63 315 3.0 8.0 0.00 0.00 0.00 35 1016.2
20260501233517 63 293 1.0 4.0 0.00 0.00 0.00 35 1016.1
20260501232516 63 0 3.0 7.0 0.00 0.00 0.00 35 1016.0
20260501231517 63 270 3.0 9.0 0.00 0.00 0.00 34 1015.9
20260501230518 64 293 3.0 6.0 0.00 0.00 0.00 34 1016.1
20260501225537 64 248 2.0 5.0 0.00 0.00 0.00 34 1016.1
20260501224558 64 23 3.0 7.0 0.00 0.00 0.00 34 1016.1
20260501223517 64 0 2.0 5.0 0.00 0.00 0.00 34 1016.5
20260501222516 63 293 3.0 6.0 0.00 0.00 0.00 34 1016.6
20260501221516 64 315 2.0 5.0 0.00 0.00 0.00 34 1016.8
20260501220517 64 23 3.0 8.0 0.00 0.00 0.00 34 1016.9
20260501215516 64 293 3.0 6.0 0.00 0.00 0.00 33 1017.0
20260501214517 63 0 3.0 6.0 0.00 0.00 0.00 36 1017.0
20260501213536 63 270 3.0 6.0 0.00 0.00 0.00 36 1017.2
20260501212517 63 270 3.0 6.0 0.00 0.00 0.00 35 1017.2
20260501211517 63 293 3.0 8.0 0.00 0.00 0.00 36 1017.4
20260501210516 61 315 3.0 6.0 0.00 0.00 0.00 36 1017.6
20260501205517 62 23 2.0 5.0 0.00 0.00 0.00 35 1017.9
20260501204516 62 0 2.0 5.0 0.00 0.00 0.00 35 1017.9
20260501203516 61 270 3.0 7.0 0.00 0.00 0.00 36 1018.2
20260501202516 62 338 2.0 5.0 0.00 0.00 0.00 36 1018.2
20260501201537 63 338 3.0 6.0 0.00 0.00 0.00 35 1018.6
20260501200517 65 293 3.0 12.0 0.00 0.00 0.00 34 1018.6
20260501195516 65 338 2.0 6.0 0.00 0.00 0.00 38 1018.7
20260501194516 63 315 2.0 5.0 0.00 0.00 0.00 37 1018.7
20260501193517 63 0 3.0 6.0 0.00 0.00 0.00 36 1018.9
20260501192516 63 0 4.0 9.0 0.00 0.00 0.00 36 1018.9
20260501191516 62 270 3.0 11.0 0.00 0.00 0.00 40 1019.0
20260501190516 62 293 3.0 7.0 0.00 0.00 0.00 39 1019.0
20260501185517 62 158 2.0 8.0 0.00 0.00 0.00 36 1019.0
20260501184516 61 90 2.0 5.0 0.00 0.00 0.00 37 1019.0
20260501183516 61 315 3.0 5.0 0.00 0.00 0.00 38 1019.1
20260501182518 63 293 2.0 5.0 0.00 0.00 0.00 36 1019.1
20260501181516 62 0 3.0 7.0 0.00 0.00 0.00 36 1019.2
20260501180516 62 315 2.0 7.0 0.00 0.00 0.00 36 1019.2